Regional Weather Roundup
Issued by NWS

Home | Current Version | Previous Version | Text Only | Print | Product List | Glossary Off
Versions: 1 2 3 4 5 6 7 8 9 10 11 12 13 14 15 16 17 18 19 20 21 22 23 24 25 26 27 28 29 30 31 32 33 34 35 36 37 38 39 40 41 42 43 44 45 46 47 48 49 50

000
ASUS43 KTOP 191508
RWRKS

WEATHER ROUNDUP FOR KANSAS
NATIONAL WEATHER SERVICE GOODLAND KS
1000 AM CDT THU APR 19 2018

NOTE:  "FAIR" INDICATES FEW OR NO CLOUDS BELOW 12,000 FEET WITH NO
SIGNIFICANT WEATHER AND/OR OBSTRUCTIONS TO VISIBILITY.

KSZ001>006-013>018-027>032-041>047-191600-
NORTHWEST KANSAS

CITY           SKY/WX    TMP DP  RH WIND       PRES   REMARKS
GOODLAND       SUNNY     47  29  49 SE9       30.39S
HAYS           SUNNY     44  32  62 NE9       30.47R
HILL CITY      SUNNY     45  32  60 VRB7      30.46S
RUSSELL        SUNNY     43  33  68 NE8       30.46R
$$

KSZ061>065-074>080-084>089-191600-
SOUTHWEST KANSAS

CITY           SKY/WX    TMP DP  RH WIND       PRES   REMARKS
DODGE CITY     SUNNY     47  29  49 NE9       30.43S
ELKHART        MOSUNNY   51  31  47 SE17      30.41R
GARDEN CITY    SUNNY     48  29  47 E8        30.41S
GREAT BEND     SUNNY     44  32  62 NE9       30.47R
LIBERAL        CLOUDY    50  27  40 SE9       30.43R
PRATT          SUNNY     45  28  51 NE10      30.45S
$$

KSZ066>073-081>083-090>101-191600-
SOUTHEAST KANSAS

CITY           SKY/WX    TMP DP  RH WIND       PRES   REMARKS
CHANUTE        MOSUNNY   45  31  58 N16       30.44R
COFFEYVILLE    MOSUNNY   48  32  53 N14G22    30.44R
HUTCHINSON     SUNNY     46  28  49 N13G22    30.46R
MEDICINE LODGE   N/A     50  31  48 N10       30.44R
PARSONS        MOSUNNY   47  32  56 N12G23    30.44R
WICHITA INTL   MOSUNNY   46  31  55 NE16      30.45R
WICHITA JABRA  SUNNY     46  28  49 N13G22    30.44R
WICHITA MCCONL SUNNY     45  27  48 N13       30.44
WINFIELD       SUNNY     47  34  60 N13       30.46R
$$

KSZ007>012-019>026-033>040-048>060-102>105-191600-
NORTHEAST KANSAS

CITY           SKY/WX    TMP DP  RH WIND       PRES   REMARKS
CONCORDIA      SUNNY     43  29  57 NE9       30.47R
EMPORIA        MOSUNNY   42  28  57 NE14      30.46R
LAWRENCE       SUNNY     44  30  57 NE7       30.46R
MANHATTAN      SUNNY     43  29  57 NE10      30.47R
MARYSVILLE     SUNNY     43  30  61 NE6       30.47R
OLATHE IND     MOSUNNY   41  30  65 VRB5      30.45R
OLATHE EXE     MOSUNNY   41  29  62 N7        30.44R
SALINA         SUNNY     45  29  53 NE10      30.49R
TOPEKA BILLARD SUNNY     44  31  60 NE8       30.46R
TOPEKA FORBES  SUNNY     43  29  57 NE10      30.46R
$$



USA.gov is the U.S. government's official web portal to all federal, state and local government web resources and services.